Overview Statistics Trail Chart Weather Telemetry Raw packets
 

This is the latest recevied weather packets stored in our database for station/object KF0WJA. If no packets are shown the sender has not sent any weather packets the latest 10 day(s).

<< 31 32 33 34 35 36 37 >>
Time Temp. Humidity Pressure Rain* Wind** Luminosity Snow
1788449230 29.44° C 62% 1016.2 hPa 0 mm - 478 W/m² -
1788448926 30° C 63% 1016.3 hPa 0 mm - 443 W/m² -
1788448625 30° C 63% 1016.3 hPa 0 mm - 429 W/m² -
1788448321 29.44° C 64% 1016.5 hPa 0 mm - 384 W/m² -
1788448021 28.89° C 65% 1016.3 hPa 0 mm - 357 W/m² -
1788447716 28.89° C 66% 1016.3 hPa 0 mm - 347 W/m² -
1788447415 28.89° C 66% 1016.5 hPa 0 mm - 331 W/m² -
1788447117 28.89° C 67% 1016.6 hPa 0 mm - 314 W/m² -
1788446809 28.33° C 67% 1016.7 hPa 0 mm - 306 W/m² -
1788446505 28.89° C 67% 1016.3 hPa 0 mm - 298 W/m² -
1788446201 28.33° C 68% 1016.6 hPa 0 mm - 282 W/m² -
1788445897 27.78° C 69% 1016.6 hPa 0 mm - 272 W/m² -
1788445616 27.78° C 69% 1016.8 hPa 0 mm - 227 W/m² -
1788445289 27.78° C 70% 1016.8 hPa 0 mm - 242 W/m² -
1788444984 27.78° C 70% 1016.5 hPa 0 mm - 212 W/m² -
1788444679 27.22° C 71% 1016.7 hPa 0 mm - 197 W/m² -
1788444375 27.22° C 71% 1016.7 hPa 0 mm - 190 W/m² -
1788444092 27.22° C 72% 1016.9 hPa 0 mm - 178 W/m² -
1788443767 27.22° C 72% 1016.6 hPa 0 mm - 155 W/m² -
1788443466 26.67° C 73% 1016.8 hPa 0 mm - 146 W/m² -
1788443165 26.67° C 73% 1016.7 hPa 0 mm - 128 W/m² -
1788442861 26.11° C 74% 1016.8 hPa 0 mm - 119 W/m² -
1788442575 26.11° C 74% 1016.8 hPa 0 mm - 53 W/m² -
1788442254 26.11° C 75% 1016.6 hPa 0 mm - 48 W/m² -
1788441949 26.11° C 75% 1016.7 hPa 0 mm - 44 W/m² -

* Rain latest hour (hover to see other rain measurements)
** Current wind speed in m/s (hover to see current wind gust speed)